Altoona, PA

8:18 PM EST on November 19, 2019 (GMT -0500)
Altoona-Blair County

Weather History for KAOO - September, 2019

Change the Weather History Date:

Friday, September 27, 2019

  Actual Average Record
Temperature  
Mean Temperature 61 °F 57 °F  
Max Temperature 78 °F 68 °F 90 °F (2017)
Min Temperature 44 °F 47 °F 29 °F (1957)
Degree Days  
Heating Degree Days 4 8  
Month to date heating degree days 32 120  
Since 1 July heating degree days 41 152  
Cooling Degree Days 0 1  
Month to date cooling degree days 78 46  
Year to date cooling degree days 723 525  
Growing Degree Days 10 (Base 50)    
Moisture  
Dew Point 49 °F    
Average Humidity 66    
Maximum Humidity 92    
Minimum Humidity 40    
Precipitation  
Precipitation 0.00 in 0.11 in 1.94 in (2011)
Month to date precipitation 1.13 3.13  
Year to date precipitation 30.82 27.06  
Sea Level Pressure  
Sea Level Pressure 30.08 in    
Wind  
Wind Speed 6 mph (South)    
Max Wind Speed 15 mph    
Max Gust Speed 22 mph    
Visibility 10 miles    
Events      
T = Trace of Precipitation, MM = Missing Value Source: NWS Daily Summary

Daily Weather History Graph

Daily Weather History Graph

Search for Another Location

Airport or City:

Astronomy

Sep. 27, 2019 Rise Set
Actual Time 7:05 AM EDT 7:02 PM EDT
Civil Twilight 6:38 AM EDT 7:29 PM EDT
Nautical Twilight 6:06 AM EDT 8:01 PM EDT
Astronomical Twilight 5:34 AM EDT 8:33 PM EDT
Moon 5:24 AM EDT (9/27) 6:52 PM EDT (9/27)
Length of Visible Light 12h 51m
Length of Day
11h 56m
Waning Crescent, 2% of the Moon is Illuminated
Sep 27
Waning Crescent
Sep 28
New
Oct 5
First Quarter
Oct 13
Full
Oct 21
Last Quarter

Hourly Weather History & Observations

Time (EDT) Temp. Windchill Dew Point Humidity Pressure Visibility Wind Dir Wind Speed Gust Speed Precip Events Conditions
12:53 AM 50.0 °F - 44.1 °F 80% 30.04 in 10.0 mi Calm Calm - N/A   Clear
1:53 AM 48.9 °F - 44.1 °F 83% 30.05 in 10.0 mi South 4.6 mph - N/A   Clear
2:53 AM 46.9 °F - 43.0 °F 86% 30.04 in 10.0 mi South 4.6 mph - N/A   Clear
3:53 AM 46.0 °F - 42.1 °F 86% 30.05 in 10.0 mi Calm Calm - N/A   Clear
4:53 AM 46.0 °F 44.8 °F 42.1 °F 86% 30.06 in 10.0 mi SSW 3.5 mph - N/A   Clear
5:53 AM 44.1 °F - 42.1 °F 93% 30.09 in 10.0 mi Calm Calm - N/A   Clear
6:53 AM 45.0 °F - 42.1 °F 90% 30.11 in 10.0 mi Calm Calm - N/A   Clear
7:53 AM 48.0 °F - 45.0 °F 89% 30.13 in 10.0 mi South 3.5 mph - N/A   Clear
8:53 AM 55.0 °F - 48.9 °F 80% 30.14 in 10.0 mi Calm Calm - N/A   Clear
9:53 AM 61.0 °F - 48.9 °F 64% 30.16 in 10.0 mi Calm Calm - N/A   Clear
10:53 AM 66.0 °F - 46.9 °F 50% 30.15 in 10.0 mi Variable 3.5 mph - N/A   Clear
11:53 AM 70.0 °F - 46.9 °F 44% 30.14 in 10.0 mi South 6.9 mph - N/A   Clear
12:53 PM 73.0 °F - 48.9 °F 42% 30.11 in 10.0 mi South 10.4 mph - N/A   Clear
1:53 PM 75.0 °F - 52.0 °F 44% 30.08 in 10.0 mi SSE 8.1 mph - N/A   Clear
2:53 PM 75.0 °F - 51.1 °F 43% 30.07 in 10.0 mi SSW 11.5 mph 20.7 mph N/A   Clear
3:53 PM 75.9 °F - 51.1 °F 42% 30.06 in 10.0 mi South 10.4 mph 19.6 mph N/A   Clear
4:53 PM 77.0 °F - 52.0 °F 42% 30.05 in 10.0 mi SSW 11.5 mph 17.3 mph N/A   Clear
5:53 PM 75.9 °F - 51.1 °F 42% 30.05 in 10.0 mi South 8.1 mph - N/A   Clear
6:53 PM 72.0 °F - 52.0 °F 49% 30.06 in 10.0 mi SSE 9.2 mph - N/A   Clear
7:53 PM 66.0 °F - 53.1 °F 63% 30.08 in 10.0 mi SW 4.6 mph - 0.00 in   Clear
8:53 PM 64.9 °F - 53.1 °F 65% 30.09 in 10.0 mi SW 3.5 mph - N/A   Clear
9:53 PM 68.0 °F - 55.0 °F 63% 30.07 in 10.0 mi SSW 6.9 mph - N/A   Clear
10:53 PM 66.9 °F - 55.9 °F 68% 30.06 in 10.0 mi SSW 8.1 mph - N/A   Clear
11:53 PM 68.0 °F - 55.9 °F 65% 30.05 in 10.0 mi South 12.7 mph - N/A   Clear